User: anonymous   Login
Location: UBC Liquid-Mirror Observatory
(49.2876°N, 122.5728°W)
Time: 16:58:01
(UTC-07:00)
Language:

KITSAT 1 - Orbit

View from above orbital plane
View from above orbital plane
View from above satellite
View from above satellite

Ground track
Ground track

The orbit data is extracted from the following two-line orbital elements,

1 22077U 92052B   15147.10906228 -.00000048  00000-0  53371-4 0  9998
2 22077 066.0842 101.8921 0010626 318.6736 120.6475 12.86505234 70645
Epoch (UTC): 27 May 2015 02:37:02
Eccentricity: 0.0010626
inclination: 66.0842°
perigee height: 1307 km
apogee height: 1323 km
right ascension of ascending node: 101.8921°
argument of perigee: 318.6736°
revolutions per day: 12.86505234
mean anomaly at epoch: 120.6475°
orbit number at epoch: 7064

The dashed part of the orbit path shows where the satellite is in the earth's shadow,  

DLR